Location: Friedrichshafen
(47.6598°N, 9.4819°E)
Time: 05:39:17
(UTC+02:00)

ISS - Visible Passes

Search period start: 27 May 2018 00:00
Search period end: 06 June 2018 00:00
Orbit: 402 x 407 km, 51.6° (Epoch: 27 May)

Date Brightness Start Highest point End Pass type
(mag) Time Alt. Az. Time Alt. Az. Time Alt. Az.
27 May -2.9 00:21:52 10° WNW 00:25:03 48° NNE 00:26:26 28° ENE visible
27 May -1.4 01:58:24 10° WNW 01:59:02 15° WNW 01:59:02 15° WNW visible
27 May -2.8 21:52:42 10° W 21:55:53 49° NNW 21:59:05 10° ENE visible
27 May -2.6 23:29:36 10° WNW 23:32:45 41° N 23:35:44 11° ENE visible
28 May -2.8 01:06:08 10° WNW 01:08:21 39° WNW 01:08:21 39° WNW visible
28 May -2.4 22:37:19 10° WNW 22:40:25 39° N 22:43:32 10° ENE visible
29 May -3.7 00:13:56 10° WNW 00:17:12 71° NNE 00:17:42 57° ENE visible
29 May -2.4 21:44:57 10° WNW 21:48:04 40° N 21:51:12 10° ENE visible
29 May -3.1 23:21:42 10° WNW 23:24:56 52° NNE 23:27:06 18° E visible
30 May -2.0 00:58:17 10° WNW 00:59:44 22° W 00:59:44 22° W visible
30 May -2.7 22:29:26 10° WNW 22:32:36 43° N 22:35:45 10° E visible
31 May -3.9 00:05:58 10° WNW 00:09:09 66° SW 00:09:09 66° SW visible
31 May -3.8 23:13:42 10° WNW 23:16:59 81° NNE 23:18:36 27° ESE visible
01 Jun -1.3 00:50:39 10° W 00:51:13 13° W 00:51:13 13° W visible
01 Jun -3.3 22:21:26 10° WNW 22:24:41 58° NNE 22:27:55 10° E visible
01 Jun -2.8 23:58:04 10° WNW 00:00:41 32° SW 00:00:41 32° SW visible
02 Jun -3.7 23:05:40 10° WNW 23:08:53 56° SSW 23:10:11 31° SE visible
03 Jun -3.9 22:13:20 10° WNW 22:16:38 88° SSW 22:19:41 11° ESE visible
03 Jun -1.8 23:50:30 10° W 23:52:20 17° SW 23:52:20 17° SW visible
04 Jun -2.6 22:57:45 10° W 23:00:38 28° SW 23:01:52 22° S visible
05 Jun -3.3 22:05:16 10° WNW 22:08:26 47° SSW 22:11:26 11° SE visible
